• In Hungary
  • List of Countries
  • For 7 days
  • Water Temperature
  • Satellite Maps
  • Weather Map
  • News
  • Weather Widgets
  • user-avatar
    Login

    Hourly Weather Ondjiwa

    Today, 23 October, Tuesday

    Time Temperature Precipitation Wind Pressure Humidity
    00:00 +21°C° 0.7 mm 4 mps 669 mmHg 77%
    01:00 +21°C° 0 mm 5 mps 669 mmHg 78%
    02:00 +21°C° 0.2 mm 5 mps 669 mmHg 77%
    03:00 +20°C° 0.2 mm 5 mps 669 mmHg 77%
    04:00 +20°C° 0.2 mm 5 mps 669 mmHg 77%
    05:00 +20°C° 0.2 mm 5 mps 669 mmHg 76%
    06:00 +20°C° 0.2 mm 5 mps 670 mmHg 75%
    07:00 +20°C° 0 mm 5 mps 670 mmHg 73%
    08:00 +21°C° 0 mm 5 mps 670 mmHg 69%
    09:00 +22°C° 0 mm 5 mps 670 mmHg 65%
    10:00 +23°C° 0 mm 5 mps 670 mmHg 61%
    11:00 +26°C° 0 mm 5 mps 670 mmHg 55%
    12:00 +28°C° 0 mm 5 mps 670 mmHg 48%
    13:00 +30°C° 0 mm 5 mps 669 mmHg 41%
    14:00 +30°C° 0 mm 5 mps 669 mmHg 40%
    15:00 +30°C° 0 mm 4 mps 668 mmHg 38%
    16:00 +32°C° 0 mm 4 mps 668 mmHg 37%
    17:00 +30°C° 0 mm 4 mps 668 mmHg 39%
    18:00 +29°C° 0 mm 3 mps 668 mmHg 41%
    19:00 +28°C° 0 mm 3 mps 668 mmHg 44%
    20:00 +27°C° 0 mm 4 mps 668 mmHg 46%
    21:00 +26°C° 0 mm 4 mps 669 mmHg 49%
    22:00 +25°C° 0 mm 5 mps 669 mmHg 52%
    23:00 +25°C° 0 mm 4 mps 669 mmHg 53%

    Tomorrow, 24 October, Wednesday

    Time Temperature Precipitation Wind Pressure Humidity
    00:00 +23°C° 0 mm 4 mps 668 mmHg 55%
    01:00 +24°C° 0 mm 3 mps 668 mmHg 57%
    02:00 +24°C° 0.1 mm 3 mps 668 mmHg 59%
    03:00 +24°C° 0.1 mm 2 mps 668 mmHg 60%
    04:00 +23°C° 0.1 mm 2 mps 668 mmHg 61%
    05:00 +23°C° 0.5 mm 2 mps 669 mmHg 62%
    06:00 +23°C° 0.5 mm 2 mps 669 mmHg 63%
    07:00 +22°C° 0.5 mm 3 mps 669 mmHg 65%
    08:00 +24°C° 0.9 mm 3 mps 670 mmHg 60%
    09:00 +25°C° 0.9 mm 4 mps 670 mmHg 55%
    10:00 +26°C° 0.9 mm 4 mps 670 mmHg 50%
    11:00 +26°C° 0.1 mm 4 mps 670 mmHg 49%
    12:00 +27°C° 0.1 mm 3 mps 669 mmHg 48%
    13:00 +27°C° 0.1 mm 3 mps 669 mmHg 47%
    14:00 +27°C° 0.1 mm 3 mps 669 mmHg 47%
    15:00 +27°C° 0.1 mm 3 mps 668 mmHg 46%
    16:00 +27°C° 0.1 mm 2 mps 668 mmHg 45%
    17:00 +26°C° 0.2 mm 2 mps 668 mmHg 49%
    18:00 +25°C° 0.2 mm 2 mps 668 mmHg 53%
    19:00 +25°C° 0.2 mm 2 mps 668 mmHg 56%
    20:00 +24°C° 0.1 mm 2 mps 669 mmHg 57%
    21:00 +24°C° 0.1 mm 2 mps 669 mmHg 58%
    22:00 +23°C° 0.1 mm 2 mps 669 mmHg 58%
    23:00 +23°C° 0 mm 1 mps 669 mmHg 59%

    Day after tomorrow, 25 October, Thursday

    Time Temperature Precipitation Wind Pressure Humidity
    00:00 +23°C° 0 mm 1 mps 668 mmHg 59%
    01:00 +23°C° 0 mm 1 mps 668 mmHg 59%
    02:00 +22°C° 0 mm 1 mps 668 mmHg 61%
    03:00 +22°C° 0 mm 1 mps 668 mmHg 63%
    04:00 +22°C° 0 mm 1 mps 667 mmHg 65%
    05:00 +22°C° 0 mm 1 mps 668 mmHg 64%
    06:00 +23°C° 0 mm 2 mps 668 mmHg 62%
    07:00 +23°C° 0 mm 2 mps 669 mmHg 61%
    08:00 +25°C° 0 mm 2 mps 669 mmHg 53%
    09:00 +28°C° 0 mm 3 mps 670 mmHg 45%
    10:00 +30°C° 0 mm 4 mps 670 mmHg 36%
    11:00 +30°C° 0 mm 4 mps 670 mmHg 33%
    12:00 +32°C° 0 mm 4 mps 669 mmHg 30%
    13:00 +33°C° 0 mm 5 mps 669 mmHg 27%
    14:00 +33°C° 0 mm 4 mps 668 mmHg 27%
    15:00 +33°C° 0 mm 4 mps 668 mmHg 26%
    16:00 +33°C° 0 mm 3 mps 667 mmHg 25%
    17:00 +31°C° 0 mm 3 mps 667 mmHg 28%
    18:00 +30°C° 0 mm 2 mps 668 mmHg 31%
    19:00 +29°C° 0 mm 2 mps 668 mmHg 34%
    20:00 +28°C° 0 mm 2 mps 668 mmHg 38%
    21:00 +27°C° 0 mm 3 mps 669 mmHg 43%
    22:00 +26°C° 0 mm 3 mps 669 mmHg 47%
    23:00 +26°C° 0 mm 3 mps 669 mmHg 50%

    26 October, Friday

    Time Temperature Precipitation Wind Pressure Humidity
    00:00 +25°C° 0 mm 2 mps 668 mmHg 52%
    01:00 +25°C° 0 mm 2 mps 668 mmHg 55%
    02:00 +24°C° 0.2 mm 2 mps 668 mmHg 58%
    03:00 +24°C° 0.2 mm 1 mps 668 mmHg 62%
    04:00 +23°C° 0.2 mm 1 mps 668 mmHg 65%
    05:00 +24°C° 0 mm 1 mps 668 mmHg 63%
    06:00 +24°C° 0 mm 1 mps 669 mmHg 61%
    07:00 +25°C° 0 mm 1 mps 670 mmHg 58%
    08:00 +26°C° 0 mm 2 mps 670 mmHg 51%
    09:00 +28°C° 0 mm 3 mps 670 mmHg 44%
    10:00 +30°C° 0 mm 3 mps 671 mmHg 37%
    11:00 +31°C° 0 mm 3 mps 670 mmHg 33%
    12:00 +33°C° 0 mm 4 mps 670 mmHg 29%
    13:00 +34°C° 0 mm 4 mps 670 mmHg 25%
    14:00 +33°C° 0 mm 3 mps 669 mmHg 25%
    15:00 +33°C° 0 mm 3 mps 669 mmHg 24%
    16:00 +33°C° 0 mm 3 mps 669 mmHg 24%
    17:00 +31°C° 0 mm 3 mps 669 mmHg 27%
    18:00 +30°C° 0 mm 3 mps 669 mmHg 29%
    19:00 +28°C° 0 mm 3 mps 669 mmHg 32%
    20:00 +28°C° 0 mm 3 mps 669 mmHg 34%
    21:00 +27°C° 0 mm 3 mps 670 mmHg 36%
    22:00 +26°C° 0 mm 2 mps 670 mmHg 39%
    23:00 +25°C° 0 mm 2 mps 670 mmHg 41%

    27 October, Saturday

    Time Temperature Precipitation Wind Pressure Humidity
    00:00 +25°C° 0 mm 1 mps 669 mmHg 43%
    01:00 +24°C° 0 mm 1 mps 669 mmHg 45%
    02:00 +24°C° 0 mm 1 mps 669 mmHg 46%
    03:00 +24°C° 0 mm 1 mps 669 mmHg 47%
    04:00 +21°C° 0 mm 0 mps 668 mmHg 48%
    05:00 +22°C° 0 mm 0 mps 669 mmHg 46%
    06:00 +22°C° 0 mm 0 mps 670 mmHg 44%
    07:00 +23°C° 0 mm 0 mps 670 mmHg 42%
    08:00 +27°C° 0 mm 1 mps 670 mmHg 37%
    09:00 +29°C° 0 mm 2 mps 671 mmHg 32%
    10:00 +31°C° 0 mm 3 mps 671 mmHg 27%
    11:00 +34°C° 0 mm 3 mps 670 mmHg 24%
    12:00 +35°C° 0 mm 4 mps 670 mmHg 22%
    13:00 +37°C° 0 mm 4 mps 669 mmHg 19%
    14:00 +36°C° 0 mm 4 mps 669 mmHg 20%
    15:00 +36°C° 0 mm 4 mps 668 mmHg 21%
    16:00 +35°C° 0 mm 3 mps 668 mmHg 21%
    17:00 +34°C° 0 mm 3 mps 668 mmHg 24%
    18:00 +33°C° 0 mm 3 mps 668 mmHg 27%
    19:00 +30°C° 0 mm 2 mps 668 mmHg 30%
    20:00 +29°C° 0.1 mm 2 mps 669 mmHg 33%
    21:00 +29°C° 0.1 mm 2 mps 669 mmHg 36%
    22:00 +28°C° 0.1 mm 2 mps 669 mmHg 39%
    23:00 +27°C° 0.1 mm 2 mps 668 mmHg 41%

    28 October, Sunday

    Time Temperature Precipitation Wind Pressure Humidity
    00:00 +26°C° 0.1 mm 2 mps 668 mmHg 43%
    01:00 +26°C° 0.1 mm 2 mps 668 mmHg 46%
    02:00 +25°C° 0.1 mm 1 mps 668 mmHg 48%
    03:00 +25°C° 0.1 mm 1 mps 667 mmHg 51%
    04:00 +24°C° 0.1 mm 1 mps 667 mmHg 54%
    05:00 +25°C° 0 mm 1 mps 668 mmHg 52%
    06:00 +26°C° 0 mm 1 mps 668 mmHg 50%
    07:00 +26°C° 0 mm 1 mps 669 mmHg 47%
    08:00 +29°C° 0 mm 1 mps 669 mmHg 41%
    09:00 +32°C° 0 mm 1 mps 670 mmHg 34%
    10:00 +34°C° 0 mm 1 mps 670 mmHg 28%
    11:00 +35°C° 0 mm 1 mps 670 mmHg 25%
    12:00 +36°C° 0 mm 1 mps 669 mmHg 22%
    13:00 +37°C° 0 mm 1 mps 668 mmHg 19%
    14:00 +37°C° 0 mm 1 mps 668 mmHg 19%
    15:00 +37°C° 0 mm 1 mps 667 mmHg 19%
    16:00 +36°C° 0 mm 1 mps 667 mmHg 18%
    17:00 +36°C° 0 mm 2 mps 667 mmHg 20%
    18:00 +35°C° 0 mm 2 mps 667 mmHg 22%
    19:00 +34°C° 0 mm 3 mps 668 mmHg 24%
    20:00 +34°C° 0 mm 3 mps 668 mmHg 26%
    21:00 +33°C° 0 mm 3 mps 668 mmHg 28%
    22:00 +31°C° 0 mm 3 mps 667 mmHg 29%
    23:00 +32°C° 0 mm 4 mps 667 mmHg 32%

    29 October, Monday

    Time Temperature Precipitation Wind Pressure Humidity
    00:00 +30°C° 0 mm 5 mps 667 mmHg 35%
    01:00 +29°C° 0 mm 6 mps 666 mmHg 37%
    02:00 +28°C° 0 mm 5 mps 666 mmHg 40%
    03:00 +28°C° 0 mm 4 mps 666 mmHg 42%
    04:00 +27°C° 0 mm 2 mps 666 mmHg 45%
    05:00 +27°C° 0.2 mm 3 mps 667 mmHg 44%
    06:00 +28°C° 0.2 mm 3 mps 667 mmHg 44%
    07:00 +28°C° 0.2 mm 3 mps 668 mmHg 43%
    08:00 +30°C° 0 mm 3 mps 668 mmHg 36%
    09:00 +34°C° 0 mm 4 mps 669 mmHg 30%
    10:00 +36°C° 0 mm 5 mps 669 mmHg 23%
    11:00 +37°C° 0 mm 4 mps 668 mmHg 20%
    12:00 +38°C° 0 mm 4 mps 668 mmHg 18%
    13:00 +40°C° 0 mm 4 mps 667 mmHg 16%
    14:00 +40°C° 0 mm 4 mps 667 mmHg 15%
    15:00 +40°C° 0 mm 4 mps 666 mmHg 15%
    16:00 +38°C° 0 mm 4 mps 666 mmHg 15%
    17:00 +37°C° 0 mm 3 mps 666 mmHg 17%
    18:00 +36°C° 0 mm 3 mps 666 mmHg 18%
    19:00 +34°C° 0 mm 3 mps 666 mmHg 20%
    20:00 +33°C° 0 mm 3 mps 666 mmHg 21%
    21:00 +33°C° 0 mm 3 mps 666 mmHg 22%
    22:00 +32°C° 0 mm 4 mps 666 mmHg 23%
    23:00 +30°C° 0 mm 4 mps 666 mmHg 25%
    Show more